This demonstration page uses our WeatherBlox Daily Observations layout. Learn more.

Left ArrowRight Arrow

39.01783, -85.05884

Hourly Observations for March 10, 2021

Temp ( °F °C ) Dew Point ( °F °C ) Humidity (%) Winds ( mph kmh ) Pressure ( in mb ) Visibility ( mi km ) Precip ( " mm )
12:52 am 00:52 Mostly Clear 48 8.9 26 -3.3 42 42 S 8 13 30.27 1025 10 16 0.00 0.00
1:52 am 01:52 Mostly Clear 46 7.8 26 -3.3 46 46 S 9 15 30.27 1025 10 16 0.00 0.00
2:52 am 02:52 Mostly Clear 46 7.8 26 -3.3 46 46 S 9 15 30.26 1025 10 16 0.00 0.00
3:52 am 03:52 Partly Cloudy 47 8.3 26 -3.3 44 44 S 9 15 30.24 1024 10 16 0.00 0.00
4:52 am 04:52 Mostly Clear 46 7.8 26 -3.3 46 46 S 10 17 30.25 1024 10 16 0.00 0.00
5:52 am 05:52 Mostly Clear 46 7.8 27 -2.8 47 47 S 10 17 30.27 1025 10 16 0.00 0.00
6:52 am 06:52 Mostly Cloudy 47 8.3 27 -2.8 46 46 S 9 15 30.28 1025 10 16 0.00 0.00
7:52 am 07:52 Mostly Cloudy 50 10 28 -2.2 43 43 S 12 19 30.28 1025 10 16 0.00 0.00
8:52 am 08:52 Mostly Cloudy 54 12.2 30 -1.1 40 40 S 12 19 30.29 1026 9 14 0.00 0.00
9:52 am 09:52 Mostly Cloudy 60 15.6 32 0 35 35 SSW 15 24 30.27 1025 10 16 0.00 0.00
10:52 am 10:52 Mostly Cloudy 64 17.8 38 3.3 38 38 SSW 16 26 30.26 1025 10 16 0.00 0.00
11:52 am 11:52 Mostly Cloudy 68 20 42 5.6 39 39 SW 21 33 30.24 1024 10 16 0.00 0.00
12:52 pm 12:52 Mostly Cloudy 66 18.9 39 3.9 37 37 SSW 18 30 30.22 1023 10 16 0.00 0.00
1:52 pm 13:52 Mostly Cloudy 70 21.1 39 3.9 32 32 SW 21 33 30.18 1022 10 16 0.00 0.00
2:52 pm 14:52 Cloudy 70 21.1 40 4.4 34 34 S 20 31 30.14 1021 10 16 0.00 0.00
3:52 pm 15:52 Cloudy 69 20.6 40 4.4 35 35 S 18 30 30.13 1020 10 16 0.00 0.00
4:52 pm 16:52 Cloudy 68 20 39 3.9 35 35 SSW 17 28 30.13 1020 10 16 0.00 0.00
5:52 pm 17:52 Cloudy 67 19.4 40 4.4 37 37 SSW 13 20 30.13 1020 10 16 0.00 0.00
6:52 pm 18:52 Mostly Cloudy 65 18.3 40 4.4 40 40 S 15 24 30.11 1020 10 16 0.00 0.00
7:52 pm 19:52 Partly Cloudy 63 17.2 39 3.9 41 41 S 13 20 30.12 1020 10 16 0.00 0.00
8:52 pm 20:52 Cloudy 63 17.2 39 3.9 41 41 S 12 19 30.13 1020 10 16 0.00 0.00
9:52 pm 21:52 Mostly Clear 63 17.2 38 3.3 40 40 S 12 19 30.13 1020 10 16 0.00 0.00
10:52 pm 22:52 Mostly Clear 60 15.6 38 3.3 44 44 S 12 19 30.13 1020 10 16 0.00 0.00
11:52 pm 23:52 Mostly Cloudy 57 13.9 39 3.9 51 51 S 10 17 30.12 1020 10 16 0.00 0.00

Powered by AerisWeather